Weather in Ravnopol'e

Russia / Republic of Crimea     44°55′52″N   33°43′00″E
temp.,
°C
wind,
m/s
gust,
m/s
humid.,
%
clouds,
%
prec.,
mm/h
press.,
hPa
HPBL,
m
3 march, wed
wed300:00+3sw697854 0.0 1024320
03:00+6wsw7118175 0.0 1023687
06:00+3n698297 0.1 1023514
09:00+4n587086 0.1 10251135
12:00+7nnw575650 0.0 10271085
15:00+8nnw564925 0.0 10271467
18:00+7nw46560 0.0 1027441
21:00+4nw337225 0.0 102977
4 march, thu
thu400:00+3sw1177100 0.0 102838
03:00+3s228067 0.0 102849
06:00+2s23830 0.0 102659
09:00+4s35740 0.0 1026222
12:00+8sw66580 0.0 1024938
15:00+8sw78590 0.0 1022828
18:00+6sw710680 0.0 1020724
21:00+5ssw712740 0.0 1020509
5 march, fri
fri500:00+4ssw713780 0.0 1019494
03:00+4ssw713780 0.0 1018427
06:00+4ssw612810 0.0 1016356
09:00+6ssw712681 0.0 1016427
12:00+10ssw913590 0.0 1015681
15:00+11ssw1013610 0.0 1013654
18:00+9ssw9137212 0.0 1013557
21:00+7ssw8138349 0.0 1014399
6 march, sat
sat600:00+7ssw71292100 0.0 1014366
03:00+6ssw599172 0.0 1014201
06:00+6s468960 0.0 101497
09:00+8sw248480 0.0 1015223
12:00+8nne6772100 0.0 1017593
15:00+3n71093100 0.3 1018399
18:00+5nne4762100 1.3 10201194
21:00+4n4857100 1.3 1023590
7 march, sun
sun700:00+1n5116453 0.0 1026509
03:00−1nne386227 0.0 1027284
06:00−2e12550 0.0 102845
09:00+1s22430 0.0 1029235
12:00+3w44410 0.0 10291443
15:00+3w55420 0.0 10261288
18:00+2w44450 0.0 10251025
21:000wsw23530 0.0 102474